Zurück zum Katalog

STARLINK-35223

AktivKommunikationVLEO
NORAD 65494·PAYLOAD·🇺🇸 United States

Gestartet Sep 5, 2025 von Cape Canaveral Space Force Station

Loading…

Nächste Überflüge (nächste 24 Stunden)

TLE

AktuellSource: CelesTrak SupGP

Epoche: Sep 14, 2026, 20:40 UTC

1 65494C 25198C   26257.86159722 -.00007043  00000+0 -20821-3 0  2573
2 65494  53.1569 108.1431 0001439  71.9484 228.0521 15.34372868    15

Verfolge STARLINK-35223 in Echtzeit mit AllMySat

Download on the App Store